Tracking 29892 objects as of 21-Nov-2024
HD Live streaming from Space Station
objects crossing your sky now

STARLINK-5993

Track STARLINK-5993 now!
10-day predictions
STARLINK-5993 is classified as:


NORAD ID: 56449
Int'l Code: 2023-064B
Perigee: 577.5 km
Apogee: 580.8 km
Inclination: 70.0 °
Period: 96.1 minutes
Semi major axis: 6950 km
RCS: Unknown
Launch date: May 10, 2023
Source: United States (US)
Launch site: AIR FORCE WESTERN TEST RANGE (AFWTR)
Your satellite tracking list
Your tracking list is empty




NASA's NSSDC Master Catalog

Two Line Element Set (TLE):
1 56449U 23064B   24325.24288366  .00000746  00000-0  70300-4 0  9999
2 56449  70.0017 260.8953 0002380 263.1067  96.9821 14.98331616 84173
Source of the keplerian elements: AFSPC